Location: Ciserano
(45.5833°N, 9.6000°E)
Time: 10:10:49
(UTC+00:00)

CZ-4C R/B - Pass Details

Date: 29 November 2020
Orbit: 620 x 1382 km, 63.4° (Epoch: 25 January)

Event Time Altitude Azimuth Distance (km) Brightness Sun altitude
Exits shadow 03:25:51 19° 146° (SE) 1,663 4.0 -33.2°
Maximum altitude 03:27:54 25° 111° (ESE) 1,490 4.0 -32.9°
Drops below altitude 10° 03:32:20 10° 58° (ENE) 2,456 5.3 -32.1°
Sets 03:35:25 0° 46° (NE) 3,536 6.0 -31.6°
